Location: Colebrook
(42.0017°N, 73.0973°W)
Time: 21:16:56
(UTC-04:00)

N. Korean satellite - Pass Details

Date: 03 October 2021
Orbit: 450 x 495 km, 97.3° (Epoch: 22 October)

Event Time Altitude Azimuth Distance (km) Brightness Sun altitude
Rises 05:12:11 0° 31° (NNE) 2,559 10.9 -19.2°
Reaches altitude 10° 05:14:54 10° 54° (NE) 1,680 10.3 -18.7°
Maximum altitude 05:17:11 16° 93° (E) 1,356 9.8 -18.3°
Drops below altitude 10° 05:19:28 10° 132° (SE) 1,682 9.8 -17.9°
Sets 05:22:11 0° 155° (SSE) 2,563 10.4 -17.4°
